This is the latest recevied weather packets stored in our database for station/object N3WMC. If no packets are shown the sender has not sent any weather packets the latest 1 day(s).
| Time | Temp. | Humidity | Pressure | Rain* | Wind** | Luminosity | Snow |
|---|---|---|---|---|---|---|---|
| 1777988910 | 20.56° C | 56% | 1009.6 hPa | 0 mm | 1.79 m/s, 319° | 215 W/m² | - |
| 1777988607 | 20.56° C | 56% | 1009.8 hPa | 0 mm | 4.02 m/s, 316° | 245 W/m² | - |
| 1777988303 | 20.56° C | 56% | 1009.7 hPa | 0 mm | 1.79 m/s, 299° | 173 W/m² | - |
| 1777988000 | 20.56° C | 57% | 1009.8 hPa | 0 mm | 1.79 m/s, 328° | 267 W/m² | - |
| 1777987696 | 20.56° C | 56% | 1009.8 hPa | 0 mm | 3.58 m/s, 277° | 191 W/m² | - |
| 1777987393 | 20.56° C | 57% | 1009.5 hPa | 0 mm | 2.24 m/s, 297° | 157 W/m² | - |
| 1777987090 | 20.56° C | 57% | 1009.6 hPa | 0 mm | 3.13 m/s, 254° | 180 W/m² | - |
| 1777986788 | 20.56° C | 58% | 1009.6 hPa | 0 mm | 1.34 m/s, 268° | 158 W/m² | - |
| 1777986485 | 20.56° C | 57% | 1009.7 hPa | 0 mm | 1.34 m/s, 252° | 153 W/m² | - |
| 1777986186 | 21.11° C | 56% | 1009.4 hPa | 0 mm | 2.24 m/s, 295° | 253 W/m² | - |
| 1777985880 | 20.56° C | 58% | 1009.5 hPa | 0 mm | 0.45 m/s, 298° | 111 W/m² | - |
| 1777985577 | 20° C | 58% | 1009.7 hPa | 0 mm | 4.02 m/s, 255° | 102 W/m² | - |
| 1777985274 | 20° C | 58% | 1009.5 hPa | 0 mm | 1.79 m/s, 228° | 124 W/m² | - |
| 1777984971 | 20° C | 59% | 1009.4 hPa | 0 mm | 3.13 m/s, 276° | 98 W/m² | - |
| 1777984666 | 19.44° C | 61% | 1009.4 hPa | 0 mm | 0.89 m/s, 284° | 80 W/m² | - |
| 1777984363 | 18.89° C | 61% | 1009.5 hPa | 0 mm | 1.34 m/s, 309° | 108 W/m² | - |
| 1777984060 | 19.44° C | 61% | 1009.6 hPa | 0 mm | 1.79 m/s, 276° | 52 W/m² | - |
| 1777983757 | 19.44° C | 61% | 1009.6 hPa | 0 mm | 2.24 m/s, 278° | 54 W/m² | - |
| 1777983454 | 20° C | 60% | 1009.6 hPa | 0 mm | 1.34 m/s, 351° | 133 W/m² | - |
| 1777983150 | 19.44° C | 60% | 1009.5 hPa | 0 mm | 0.89 m/s, 295° | 195 W/m² | - |
| 1777982846 | 19.44° C | 61% | 1009.5 hPa | 0 mm | 1.79 m/s, 324° | 184 W/m² | - |
| 1777982543 | 18.89° C | 62% | 1009.6 hPa | 0 mm | 1.34 m/s, 336° | 157 W/m² | - |
| 1777982241 | 18.89° C | 64% | 1009.6 hPa | 0 mm | 0.45 m/s, 327° | 99 W/m² | - |
| 1777981939 | 18.33° C | 64% | 1009.6 hPa | 0 mm | 0.89 m/s, 305° | 83 W/m² | - |
| 1777981636 | 18.33° C | 64% | 1009.6 hPa | 0 mm | 1.79 m/s, 249° | 88 W/m² | - |
* Rain latest hour (hover to see other rain measurements)
** Current wind speed in m/s (hover to see current wind gust speed)